| time (UTC) | temp C | wind direction | speed KPH | gust KPH | rain 1hr cm | rain 24hr cm | rain mn cm | humidity % | barometer mb |
| 20260504110241 | 8 | 196 | 6.4 | 9.7 | 0.00 | 0.00 | 0.00 | 59 | 1016.5 |
| 20260504081341 | 10 | 232 | 3.2 | 4.8 | 0.00 | 0.00 | 0.00 | 48 | 1016.8 |
| 20260504045841 | 11 | 261 | 6.4 | 11.3 | 0.00 | 0.00 | 0.00 | 46 | 1017.0 |
| 20260504044541 | 11 | 236 | 6.4 | 12.9 | 0.00 | 0.00 | 0.00 | 46 | 1017.0 |
| 20260504043241 | 11 | 251 | 6.4 | 12.9 | 0.00 | 0.00 | 0.00 | 46 | 1016.8 |
| 20260504041941 | 11 | 246 | 6.4 | 11.3 | 0.00 | 0.00 | 0.00 | 46 | 1016.7 |
| 20260504040641 | 11 | 247 | 6.4 | 9.7 | 0.00 | 0.00 | 0.00 | 47 | 1016.5 |
| 20260504035341 | 11 | 258 | 4.8 | 9.7 | 0.00 | 0.00 | 0.00 | 47 | 1016.7 |
| 20260504034041 | 11 | 252 | 4.8 | 14.5 | 0.00 | 0.00 | 0.00 | 47 | 1016.6 |
| 20260504032741 | 11 | 254 | 3.2 | 6.4 | 0.00 | 0.00 | 0.00 | 47 | 1016.4 |
| 20260504031441 | 11 | 261 | 4.8 | 12.9 | 0.00 | 0.00 | 0.00 | 47 | 1016.4 |
| 20260504030141 | 11 | 248 | 3.2 | 8.0 | 0.00 | 0.00 | 0.00 | 47 | 1016.3 |
| 20260504024841 | 11 | 258 | 4.8 | 11.3 | 0.00 | 0.00 | 0.00 | 47 | 1016.4 |
| 20260504023541 | 11 | 251 | 3.2 | 6.4 | 0.00 | 0.00 | 0.00 | 47 | 1016.4 |
| 20260504022241 | 11 | 238 | 4.8 | 11.3 | 0.00 | 0.00 | 0.00 | 47 | 1016.5 |
| 20260504020941 | 11 | 265 | 4.8 | 11.3 | 0.00 | 0.00 | 0.00 | 48 | 1016.5 |
| 20260504015642 | 10 | 257 | 3.2 | 8.0 | 0.00 | 0.00 | 0.00 | 51 | 1016.6 |
| 20260504014341 | 10 | 270 | 1.6 | 4.8 | 0.00 | 0.00 | 0.00 | 56 | 1016.4 |
| 20260504013042 | 10 | 254 | 1.6 | 3.2 | 0.00 | 0.00 | 0.00 | 53 | 1016.2 |
| 20260504011742 | 10 | 246 | 1.6 | 6.4 | 0.00 | 0.00 | 0.00 | 53 | 1016.2 |
| 20260504010442 | 10 | 247 | 0.0 | 1.6 | 0.00 | 0.00 | 0.00 | 56 | 1016.1 |
| 20260504005142 | 10 | 247 | 1.6 | 6.4 | 0.00 | 0.00 | 0.00 | 54 | 1016.2 |
| 20260504003842 | 10 | 236 | 0.0 | 8.0 | 0.00 | 0.00 | 0.00 | 54 | 1016.1 |
| 20260504002542 | 11 | 246 | 1.6 | 4.8 | 0.00 | 0.00 | 0.00 | 53 | 1015.7 |
| 20260504001242 | 12 | 246 | 1.6 | 3.2 | 0.00 | 0.00 | 0.00 | 50 | 1015.6 |
| 20260503235942 | 12 | 234 | 3.2 | 6.4 | 0.00 | 0.00 | 0.00 | 47 | 1015.3 |
| 20260503234642 | 12 | 258 | 3.2 | 4.8 | 0.00 | 0.00 | 0.00 | 46 | 1015.3 |
| 20260503233342 | 13 | 250 | 4.8 | 8.0 | 0.00 | 0.00 | 0.00 | 45 | 1015.1 |
| 20260503232042 | 13 | 271 | 6.4 | 11.3 | 0.00 | 0.00 | 0.00 | 43 | 1015.1 |
| 20260503230742 | 13 | 259 | 6.4 | 12.9 | 0.00 | 0.00 | 0.00 | 41 | 1015.1 |
| 20260503225442 | 13 | 265 | 8.0 | 11.3 | 0.00 | 0.00 | 0.00 | 42 | 1015.1 |
| 20260503224142 | 13 | 266 | 8.0 | 12.9 | 0.00 | 0.00 | 0.00 | 42 | 1015.0 |
| 20260503222842 | 13 | 267 | 6.4 | 11.3 | 0.00 | 0.00 | 0.00 | 42 | 1014.9 |
| 20260503221542 | 13 | 275 | 8.0 | 14.5 | 0.00 | 0.00 | 0.00 | 41 | 1015.0 |
| 20260503220242 | 13 | 270 | 8.0 | 14.5 | 0.00 | 0.00 | 0.00 | 42 | 1015.0 |
| 20260503214942 | 13 | 266 | 8.0 | 14.5 | 0.00 | 0.00 | 0.00 | 41 | 1014.9 |
| 20260503213642 | 13 | 255 | 8.0 | 16.1 | 0.00 | 0.00 | 0.00 | 40 | 1015.1 |
| 20260503212342 | 13 | 275 | 6.4 | 12.9 | 0.00 | 0.00 | 0.00 | 41 | 1015.1 |
| 20260503211042 | 13 | 257 | 8.0 | 16.1 | 0.00 | 0.00 | 0.00 | 41 | 1014.9 |
| 20260503205742 | 13 | 271 | 6.4 | 14.5 | 0.00 | 0.00 | 0.00 | 41 | 1015.0 |
| 20260503204442 | 13 | 259 | 8.0 | 16.1 | 0.00 | 0.00 | 0.00 | 42 | 1015.1 |
| 20260503203142 | 13 | 263 | 6.4 | 12.9 | 0.00 | 0.00 | 0.00 | 42 | 1015.2 |
| 20260503201842 | 13 | 271 | 8.0 | 17.7 | 0.00 | 0.00 | 0.00 | 41 | 1015.4 |
| 20260503200542 | 12 | 269 | 6.4 | 9.7 | 0.00 | 0.00 | 0.00 | 43 | 1015.4 |
| 20260503195242 | 13 | 258 | 9.7 | 14.5 | 0.00 | 0.00 | 0.00 | 42 | 1015.6 |
| 20260503193942 | 13 | 263 | 6.4 | 11.3 | 0.00 | 0.00 | 0.00 | 43 | 1015.6 |
| 20260503192642 | 12 | 248 | 9.7 | 14.5 | 0.00 | 0.00 | 0.00 | 45 | 1015.7 |
| 20260503191342 | 12 | 257 | 4.8 | 12.9 | 0.00 | 0.00 | 0.00 | 42 | 1015.9 |
| 20260503190042 | 12 | 270 | 11.3 | 19.3 | 0.00 | 0.00 | 0.00 | 43 | 1016.0 |
| 20260503184742 | 12 | 255 | 8.0 | 12.9 | 0.00 | 0.00 | 0.00 | 48 | 1016.1 |
| 20260503183442 | 12 | 268 | 4.8 | 20.9 | 0.00 | 0.00 | 0.00 | 44 | 1016.1 |
| 20260503182142 | 12 | 261 | 8.0 | 16.1 | 0.00 | 0.00 | 0.00 | 42 | 1016.1 |
| 20260503180842 | 12 | 253 | 6.4 | 14.5 | 0.00 | 0.00 | 0.00 | 42 | 1016.3 |
| 20260503175542 | 12 | 283 | 8.0 | 16.1 | 0.00 | 0.00 | 0.00 | 47 | 1016.5 |
| 20260503174242 | 11 | 252 | 8.0 | 14.5 | 0.00 | 0.00 | 0.00 | 44 | 1016.3 |
| 20260503172942 | 11 | 277 | 6.4 | 11.3 | 0.00 | 0.00 | 0.00 | 45 | 1016.4 |
| 20260503171642 | 11 | 267 | 9.7 | 16.1 | 0.00 | 0.00 | 0.00 | 44 | 1016.4 |
| 20260503170342 | 10 | 267 | 11.3 | 25.7 | 0.00 | 0.00 | 0.00 | 46 | 1016.7 |
| 20260503150642 | 7 | 10 | 6.4 | 12.9 | 0.00 | 0.00 | 0.00 | 57 | 1017.4 |
| 20260503140143 | 6 | 292 | 4.8 | 11.3 | 0.00 | 0.00 | 0.00 | 64 | 1017.4 |
| 20260503130943 | 6 | 267 | 6.4 | 12.9 | 0.00 | 0.00 | 0.00 | 65 | 1017.3 |